GFSNIL_prec_precacc_159.txt.gz
Total_Precipitation_Accumulation
0.22 0.22 0.34 0.47 0.70 0.78 0.82 0.82 0.50 0.56 0.50 0.38 0.24 0.18 0.28 0.25 0.11 0.10 0.12 0.08 0.05 0.08
0.20 0.16 0.16 0.43 0.61 0.52 0.67 0.84 0.96 0.49 0.41 0.33 0.30 0.17 0.23 0.16 0.17 0.29 0.27 0.06 0.05 0.03
0.16 0.16 0.23 0.33 0.47 0.58 0.74 1.88 1.71 0.83 0.47 0.39 0.36 0.43 0.34 0.12 0.08 0.16 0.14 0.03 0.09 0.08
0.33 0.16 0.17 0.24 0.37 0.53 0.65 0.79 0.86 1.36 0.68 0.72 0.62 0.50 0.57 0.44 0.35 0.40 0.26 0.12 0.16 0.15
0.95 0.78 0.48 0.34 0.32 0.46 0.58 0.64 0.76 0.78 1.01 1.01 0.68 0.92 0.75 0.68 0.59 0.62 0.43 0.38 0.43 0.32
1.17 1.07 1.06 0.90 0.90 0.62 0.52 0.65 0.68 0.84 1.09 1.04 0.96 1.10 1.16 1.27 1.03 0.74 0.64 0.51 0.55 0.51
1.37 1.15 1.17 1.33 1.73 1.82 1.35 1.16 0.84 0.66 0.78 0.72 0.77 0.78 0.98 1.27 1.54 1.07 0.76 1.15 1.09 1.02
2.51 1.84 1.82 1.90 2.46 2.72 2.01 1.70 1.36 1.28 1.19 1.12 1.10 0.99 1.02 0.97 1.06 1.09 1.08 1.17 1.53 1.46
2.67 2.52 1.85 1.75 1.68 1.94 1.83 1.98 2.32 1.63 1.40 1.62 1.40 1.15 0.78 0.66 0.73 1.04 1.06 1.02 1.15 1.08
1.86 1.47 1.32 1.35 1.50 1.51 1.67 1.79 1.64 1.57 1.54 1.28 0.97 0.83 0.86 0.98 0.96 1.00 1.08 1.15 1.22 1.02
1.66 1.66 1.48 1.22 1.08 1.16 1.36 1.52 1.63 1.23 1.04 1.18 1.26 1.60 1.34 1.40 1.12 0.74 0.86 0.94 0.93 0.95
1.36 1.15 1.24 1.23 1.31 1.31 1.21 1.18 1.27 1.38 1.29 1.05 0.87 1.21 1.14 1.40 1.15 0.93 0.88 0.98 0.74 0.67
2.90 1.88 1.43 1.74 1.92 1.90 2.01 1.63 1.20 1.09 0.93 0.79 0.65 0.90 1.02 1.04 0.95 0.92 0.79 0.74 0.64 0.95
2.11 2.55 2.37 2.51 2.53 2.41 2.30 2.13 1.78 1.57 1.36 1.23 0.97 0.93 0.93 0.93 0.73 0.58 0.88 0.73 0.54 0.52

GFSNIL_prec_precacc_162.txt.gz
Total_Precipitation_Accumulation
0.22 0.22 0.34 0.47 0.70 0.78 0.82 0.82 0.50 0.56 0.50 0.38 0.24 0.21 0.28 0.25 0.11 0.10 0.12 0.08 0.05 0.08
0.20 0.16 0.16 0.43 0.61 0.52 0.67 0.87 0.99 0.50 0.42 0.33 0.30 0.18 0.28 0.16 0.18 0.29 0.27 0.06 0.05 0.03
0.16 0.16 0.23 0.33 0.47 0.58 0.74 1.88 1.74 0.88 0.50 0.40 0.38 0.47 0.36 0.13 0.12 0.18 0.15 0.03 0.09 0.08
0.33 0.16 0.17 0.24 0.37 0.53 0.65 0.79 0.86 1.36 0.69 0.76 0.69 0.52 0.58 0.45 0.42 0.45 0.29 0.13 0.16 0.15
0.97 0.78 0.48 0.34 0.32 0.46 0.58 0.64 0.77 0.80 1.02 1.02 0.71 0.94 0.76 0.73 0.65 0.69 0.48 0.43 0.45 0.32
1.25 1.11 1.06 0.90 0.90 0.62 0.52 0.67 0.72 0.87 1.10 1.06 0.96 1.10 1.17 1.28 1.05 0.77 0.67 0.54 0.56 0.52
1.37 1.19 1.17 1.34 1.74 1.85 1.35 1.17 0.84 0.66 0.78 0.72 0.77 0.78 0.99 1.29 1.58 1.10 0.78 1.18 1.13 1.03
2.51 1.85 1.83 2.00 2.51 2.74 2.01 1.70 1.36 1.28 1.19 1.12 1.10 0.99 1.02 0.97 1.06 1.09 1.08 1.17 1.53 1.47
2.72 2.60 2.00 1.82 1.72 1.95 1.83 1.99 2.33 1.64 1.40 1.62 1.40 1.15 0.78 0.66 0.73 1.04 1.06 1.02 1.16 1.08
2.01 1.59 1.37 1.38 1.55 1.53 1.67 1.79 1.64 1.58 1.54 1.28 0.97 0.84 0.86 0.99 0.97 1.00 1.09 1.16 1.24 1.05
1.87 1.88 1.54 1.26 1.11 1.17 1.36 1.52 1.63 1.23 1.04 1.18 1.26 1.62 1.36 1.42 1.12 0.76 0.91 1.01 0.97 0.96
1.48 1.27 1.31 1.26 1.34 1.32 1.21 1.18 1.27 1.38 1.29 1.05 0.87 1.22 1.16 1.41 1.15 0.93 0.89 1.03 0.81 0.74
2.95 1.93 1.46 1.75 1.92 1.90 2.01 1.63 1.20 1.09 0.93 0.79 0.65 0.90 1.02 1.04 0.95 0.92 0.79 0.74 0.64 0.96
2.13 2.56 2.37 2.51 2.53 2.41 2.30 2.13 1.78 1.57 1.36 1.23 0.97 0.93 0.93 0.94 0.73 0.58 0.88 0.73 0.54 0.52

GFSNIL_prec_precacc_168.txt.gz
Total_Precipitation_Accumulation
0.22 0.22 0.34 0.47 0.70 0.78 0.82 0.82 0.50 0.56 0.50 0.38 0.24 0.21 0.28 0.26 0.11 0.10 0.13 0.08 0.06 0.08
0.20 0.16 0.16 0.43 0.61 0.52 0.67 0.87 1.00 0.50 0.42 0.33 0.30 0.19 0.32 0.21 0.19 0.31 0.29 0.08 0.08 0.04
0.16 0.16 0.23 0.33 0.47 0.58 0.74 1.88 1.75 0.88 0.50 0.40 0.38 0.47 0.40 0.15 0.13 0.24 0.17 0.04 0.11 0.11
0.33 0.16 0.17 0.24 0.37 0.53 0.65 0.79 0.86 1.36 0.69 0.76 0.69 0.52 0.58 0.47 0.46 0.47 0.34 0.18 0.19 0.19
0.97 0.78 0.48 0.34 0.32 0.46 0.58 0.64 0.77 0.80 1.02 1.02 0.71 0.94 0.76 0.73 0.66 0.69 0.50 0.45 0.58 0.34
1.25 1.11 1.06 0.90 0.90 0.62 0.52 0.67 0.72 0.87 1.10 1.06 0.96 1.10 1.17 1.28 1.05 0.77 0.67 0.54 0.57 0.53
1.37 1.20 1.17 1.34 1.74 1.85 1.35 1.17 0.84 0.66 0.78 0.72 0.78 0.78 0.99 1.30 1.58 1.10 0.78 1.18 1.13 1.03
2.51 1.91 1.96 2.00 2.52 2.74 2.01 1.70 1.36 1.28 1.19 1.13 1.10 1.00 1.03 0.97 1.06 1.09 1.08 1.17 1.53 1.47
2.72 2.61 2.02 1.85 1.74 1.95 1.84 2.00 2.33 1.64 1.41 1.64 1.41 1.17 0.78 0.66 0.73 1.04 1.06 1.02 1.16 1.08
2.01 1.61 1.40 1.39 1.58 1.56 1.81 1.83 1.65 1.59 1.57 1.31 0.98 0.85 0.87 1.00 0.97 1.00 1.09 1.16 1.24 1.05
1.88 1.94 1.57 1.26 1.12 1.18 1.45 1.56 1.69 1.30 1.11 1.20 1.26 1.62 1.36 1.42 1.13 0.76 0.91 1.02 0.98 0.97
1.50 1.29 1.34 1.27 1.34 1.36 1.29 1.24 1.34 1.40 1.30 1.05 0.87 1.22 1.16 1.41 1.15 0.93 0.89 1.03 0.81 0.75
3.11 2.03 1.56 1.82 1.94 1.92 2.01 1.63 1.20 1.09 0.93 0.79 0.65 0.90 1.02 1.04 0.95 0.92 0.79 0.74 0.64 0.96
2.38 2.87 2.58 2.61 2.55 2.41 2.30 2.13 1.78 1.57 1.36 1.23 0.97 0.93 0.93 0.94 0.73 0.58 0.88 0.73 0.54 0.52

GFSNIL_prec_precacc_171.txt.gz
Total_Precipitation_Accumulation
0.22 0.22 0.34 0.47 0.70 0.78 0.82 0.82 0.50 0.56 0.50 0.38 0.24 0.21 0.28 0.26 0.12 0.11 0.15 0.08 0.06 0.08
0.20 0.16 0.16 0.43 0.61 0.52 0.67 0.87 1.00 0.50 0.42 0.33 0.30 0.19 0.34 0.23 0.19 0.31 0.30 0.08 0.08 0.04
0.16 0.16 0.23 0.33 0.47 0.58 0.74 1.88 1.75 0.88 0.50 0.40 0.38 0.47 0.46 0.17 0.13 0.28 0.19 0.04 0.11 0.13
0.33 0.16 0.17 0.24 0.37 0.53 0.65 0.79 0.86 1.36 0.69 0.76 0.69 0.59 0.71 0.50 0.46 0.52 0.36 0.18 0.19 0.20
0.97 0.78 0.48 0.34 0.32 0.46 0.58 0.64 0.77 0.80 1.02 1.03 0.71 0.95 0.80 0.75 0.66 0.70 0.51 0.46 0.62 0.36
1.25 1.11 1.06 0.90 0.90 0.62 0.52 0.67 0.72 0.87 1.10 1.06 0.96 1.11 1.19 1.30 1.06 0.78 0.67 0.54 0.58 0.55
1.37 1.20 1.17 1.34 1.74 1.85 1.35 1.17 0.84 0.66 0.78 0.72 0.78 0.78 0.99 1.33 1.62 1.13 0.79 1.24 1.19 1.08
2.51 1.91 1.96 2.00 2.52 2.74 2.01 1.70 1.36 1.28 1.19 1.13 1.10 1.01 1.07 0.98 1.14 1.16 1.11 1.18 1.55 1.47
2.72 2.61 2.02 1.85 1.74 1.95 1.85 2.03 2.34 1.66 1.48 1.73 1.63 1.42 0.88 0.70 0.76 1.06 1.07 1.02 1.16 1.08
2.01 1.61 1.40 1.39 1.58 1.56 1.82 1.95 1.72 1.69 1.69 1.42 1.06 0.93 0.87 1.00 0.97 1.00 1.09 1.16 1.25 1.05
1.88 1.94 1.57 1.26 1.12 1.18 1.47 1.63 1.76 1.41 1.18 1.22 1.27 1.63 1.36 1.42 1.13 0.76 0.91 1.02 0.98 0.97
1.50 1.29 1.34 1.30 1.40 1.38 1.30 1.26 1.39 1.41 1.30 1.05 0.87 1.22 1.16 1.41 1.15 0.93 0.89 1.03 0.81 0.75
3.12 2.07 1.61 1.92 2.10 2.12 2.10 1.68 1.22 1.09 0.93 0.79 0.65 0.90 1.02 1.04 0.95 0.92 0.79 0.74 0.64 0.96
2.40 2.91 2.59 2.71 2.70 2.55 2.39 2.19 1.78 1.57 1.36 1.23 0.97 0.93 0.93 0.94 0.73 0.58 0.88 0.73 0.54 0.52

GFSNIL_prec_precacc_174.txt.gz
Total_Precipitation_Accumulation
0.22 0.22 0.34 0.48 0.70 0.78 0.82 0.82 0.50 0.56 0.50 0.38 0.25 0.23 0.30 0.27 0.12 0.12 0.20 0.15 0.07 0.08
0.20 0.16 0.16 0.43 0.61 0.52 0.67 0.87 1.00 0.50 0.44 0.35 0.31 0.19 0.37 0.24 0.20 0.33 0.35 0.13 0.10 0.05
0.16 0.16 0.23 0.33 0.47 0.58 0.74 1.88 1.75 0.90 0.53 0.42 0.40 0.49 0.53 0.20 0.14 0.32 0.23 0.05 0.16 0.16
0.33 0.16 0.17 0.24 0.37 0.53 0.65 0.79 0.86 1.37 0.72 0.78 0.70 0.65 0.78 0.60 0.50 0.64 0.39 0.20 0.24 0.25
0.97 0.78 0.48 0.34 0.32 0.46 0.58 0.64 0.78 0.80 1.04 1.07 0.72 1.05 0.90 0.81 0.71 0.78 0.59 0.51 0.67 0.39
1.25 1.11 1.06 0.90 0.90 0.62 0.52 0.67 0.72 0.87 1.10 1.06 0.96 1.15 1.22 1.32 1.09 0.79 0.68 0.57 0.64 0.61
1.37 1.20 1.17 1.34 1.74 1.85 1.35 1.17 0.84 0.66 0.78 0.72 0.78 0.78 0.99 1.34 1.63 1.14 0.79 1.29 1.26 1.14
2.51 1.91 1.96 2.00 2.53 2.74 2.01 1.70 1.36 1.28 1.19 1.13 1.10 1.01 1.09 1.00 1.18 1.22 1.14 1.25 1.60 1.48
2.72 2.61 2.02 1.85 1.74 1.95 1.85 2.03 2.36 1.67 1.49 1.76 1.75 1.65 1.03 0.81 0.85 1.12 1.09 1.03 1.16 1.08
2.01 1.61 1.40 1.39 1.58 1.56 1.82 1.97 1.76 1.74 1.76 1.61 1.55 1.35 1.04 1.03 0.97 1.00 1.09 1.16 1.25 1.05
1.88 1.94 1.57 1.27 1.12 1.18 1.47 1.69 1.86 1.48 1.22 1.54 1.39 1.82 1.43 1.46 1.13 0.76 0.91 1.02 0.98 0.97
1.50 1.29 1.35 1.31 1.42 1.41 1.36 1.35 1.44 1.47 1.34 1.16 0.94 1.26 1.16 1.41 1.15 0.93 0.89 1.03 0.81 0.75
3.13 2.08 1.66 2.02 2.29 2.32 2.27 1.78 1.32 1.32 1.05 0.83 0.66 0.90 1.02 1.04 0.95 0.92 0.79 0.74 0.64 0.96
2.41 2.93 2.71 2.89 2.94 2.73 2.50 2.39 1.89 1.66 1.38 1.24 0.97 0.93 0.93 0.94 0.73 0.58 0.88 0.73 0.54 0.52